Погода в Вышкове

Украина / Ивано-Франковская область     48°43′36″N   23°39′25″E
темп.,
°C
ветер,
м/с
пор.,
м/с
влажн.,
%
обл.,
%
осадки,
мм/ч
давл.,
гПа
погр.,
м
7 мая, пт
пт700:00+3юз4128399 0.0 1013670
03:00+1ююз3595100 0.0 1013103
06:00+1ю3893100 0.0 1011216
09:00+6ююз41483100 0.1 10081176
12:00+6ююз41291100 2.3 1008757
15:00+8юз41087100 3.1 1007924
18:00+7ююз4983100 0.4 1007766
21:00+5ююз2497100 2.0 1009279
8 мая, сб
сб800:00+5юз2898100 0.8 1010689
03:00+1з12100100 7.5 101597
06:00−3зюз119823 1.3 101828
09:000з2685100 1.4 1020948
12:00+1з3681100 0.1 10211052
15:00+3зсз3572100 0.2 10221106
18:00+4зсз257434 0.5 1021998
21:00−1юз119010 0.6 102410
9 мая, вс
вс900:00−2ю22915 0.0 102619
03:00−2ю229098 0.0 102730
06:00−1ю23905 0.0 102741
09:00+6ююз236561 0.0 1025504
12:00+9юз445157 0.0 10241422
15:00+12юз44445 0.0 10231428
18:00+11юз33495 0.0 10231090
21:00+4ююз118113 0.0 102410
10 мая, пн
пн1000:00+3ю22855 0.0 102539
03:00+3ю32765 0.0 102539
06:00+3ю32615 0.0 102439
09:00+12ююз12425 0.0 1022289
12:00+18ююз12314 0.0 10201132
15:00+21зсз12310 0.0 10181474
18:00+18сз11420 0.0 1019779
21:00+10юв11840 0.0 102010
11 мая, вт
вт1100:00+8ю22810 0.0 102115
03:00+8ю22710 0.0 102021
06:00+7ю22670 0.0 102021
09:00+16ююз11480 0.0 1018315
12:00+21с12380 0.0 10161497
15:00+21ссв23402 0.0 10151871
18:00+18св225227 0.0 1015765
21:00+10в11860 0.0 101513